| time (UTC) | temp F | wind direction | speed knots | gust knots | rain 1hr in | rain 24hr in | rain mn in | humidity % | barometer mb |
| 20260510170853 | 58 | 347 | 8.7 | 13.0 | 0.00 | 0.00 | 0.00 | 34 | 1018.3 |
| 20260510170349 | 59 | 12 | 4.3 | 10.4 | 0.00 | 0.00 | 0.00 | 33 | 1018.5 |
| 20260510165844 | 58 | 310 | 1.7 | 9.6 | 0.00 | 0.00 | 0.00 | 36 | 1018.5 |
| 20260510165341 | 59 | 11 | 9.6 | 10.4 | 0.00 | 0.00 | 0.00 | 34 | 1018.4 |
| 20260510164838 | 59 | 334 | 6.1 | 6.1 | 0.00 | 0.00 | 0.00 | 35 | 1018.3 |
| 20260510164335 | 57 | 167 | 1.7 | 6.1 | 0.00 | 0.00 | 0.00 | 37 | 1018.4 |
| 20260510163835 | 57 | 2 | 2.6 | 10.4 | 0.00 | 0.00 | 0.00 | 37 | 1018.5 |
| 20260510163331 | 57 | 325 | 4.3 | 7.0 | 0.00 | 0.00 | 0.00 | 41 | 1018.4 |
| 20260510162826 | 57 | 359 | 4.3 | 8.7 | 0.00 | 0.00 | 0.00 | 39 | 1018.4 |
| 20260510162324 | 57 | 346 | 2.6 | 7.0 | 0.00 | 0.00 | 0.00 | 41 | 1018.4 |
| 20260510161819 | 57 | 21 | 5.2 | 9.6 | 0.00 | 0.00 | 0.00 | 40 | 1018.3 |
| 20260510161315 | 57 | 358 | 10.4 | 12.2 | 0.00 | 0.00 | 0.00 | 40 | 1018.4 |
| 20260510160813 | 55 | 353 | 2.6 | 9.6 | 0.00 | 0.00 | 0.00 | 41 | 1018.3 |
| 20260510160309 | 55 | 332 | 8.7 | 13.9 | 0.00 | 0.00 | 0.00 | 41 | 1018.4 |
| 20260510155809 | 55 | 349 | 4.3 | 7.0 | 0.00 | 0.00 | 0.00 | 43 | 1018.3 |
| 20260510155306 | 55 | 43 | 7.0 | 10.4 | 0.00 | 0.00 | 0.00 | 45 | 1018.3 |
| 20260510154802 | 55 | 77 | 1.7 | 8.7 | 0.00 | 0.00 | 0.00 | 47 | 1018.2 |
| 20260510154258 | 55 | 347 | 3.5 | 9.6 | 0.00 | 0.00 | 0.00 | 47 | 1018.1 |
| 20260510153752 | 55 | 358 | 6.1 | 8.7 | 0.00 | 0.00 | 0.00 | 48 | 1018.2 |
| 20260510153248 | 55 | 89 | 7.0 | 9.6 | 0.00 | 0.00 | 0.00 | 48 | 1018.1 |
| 20260510152745 | 55 | 339 | 4.3 | 8.7 | 0.00 | 0.00 | 0.00 | 53 | 1018.1 |
| 20260510152242 | 54 | 341 | 6.1 | 8.7 | 0.00 | 0.00 | 0.00 | 52 | 1018.1 |
| 20260510151738 | 53 | 16 | 7.8 | 9.6 | 0.00 | 0.00 | 0.00 | 52 | 1018.0 |
| 20260510151237 | 52 | 12 | 6.1 | 8.7 | 0.00 | 0.00 | 0.00 | 53 | 1018.0 |
| 20260510150732 | 53 | 31 | 5.2 | 9.6 | 0.00 | 0.00 | 0.00 | 55 | 1018.0 |
| 20260510150228 | 52 | 1 | 7.0 | 9.6 | 0.00 | 0.00 | 0.00 | 51 | 1017.7 |
| 20260510145725 | 52 | 13 | 4.3 | 9.6 | 0.00 | 0.00 | 0.00 | 54 | 1017.9 |
| 20260510145221 | 53 | 341 | 7.8 | 12.2 | 0.00 | 0.00 | 0.00 | 51 | 1017.9 |
| 20260510144717 | 53 | 38 | 6.1 | 13.0 | 0.00 | 0.00 | 0.00 | 48 | 1017.7 |
| 20260510144214 | 53 | 321 | 5.2 | 10.4 | 0.00 | 0.00 | 0.00 | 51 | 1017.6 |
| 20260510143709 | 52 | 358 | 4.3 | 7.0 | 0.00 | 0.00 | 0.00 | 54 | 1017.8 |
| 20260510143205 | 52 | 347 | 5.2 | 9.6 | 0.00 | 0.00 | 0.00 | 54 | 1017.6 |
| 20260510142702 | 52 | 8 | 7.0 | 8.7 | 0.00 | 0.00 | 0.00 | 58 | 1017.7 |
| 20260510142158 | 51 | 303 | 5.2 | 9.6 | 0.00 | 0.00 | 0.00 | 58 | 1017.7 |
| 20260510141655 | 50 | 346 | 4.3 | 6.1 | 0.00 | 0.00 | 0.00 | 65 | 1017.7 |
| 20260510141154 | 51 | 3 | 7.0 | 9.6 | 0.00 | 0.00 | 0.00 | 64 | 1017.7 |
| 20260510140650 | 51 | 20 | 8.7 | 9.6 | 0.00 | 0.00 | 0.00 | 65 | 1017.6 |
| 20260510140149 | 50 | 25 | 5.2 | 8.7 | 0.00 | 0.00 | 0.00 | 64 | 1017.3 |
| 20260510135644 | 50 | 350 | 5.2 | 6.1 | 0.00 | 0.00 | 0.00 | 67 | 1017.5 |
| 20260510135141 | 50 | 55 | 0.9 | 3.5 | 0.00 | 0.00 | 0.00 | 70 | 1017.1 |
| 20260510134638 | 50 | 155 | 1.7 | 4.3 | 0.00 | 0.00 | 0.00 | 71 | 1017.3 |
| 20260510134135 | 49 | 11 | 0.9 | 4.3 | 0.00 | 0.00 | 0.00 | 70 | 1017.2 |
| 20260510133632 | 49 | 32 | 5.2 | 8.7 | 0.00 | 0.00 | 0.00 | 71 | 1017.2 |
| 20260510133127 | 49 | 337 | 7.8 | 8.7 | 0.00 | 0.00 | 0.00 | 71 | 1017.2 |
| 20260510132624 | 49 | 3 | 2.6 | 8.7 | 0.00 | 0.00 | 0.00 | 70 | 1016.9 |
| 20260510132121 | 49 | 9 | 1.7 | 7.0 | 0.00 | 0.00 | 0.00 | 74 | 1017.1 |
| 20260510131618 | 49 | 43 | 3.5 | 4.3 | 0.00 | 0.00 | 0.00 | 72 | 1016.7 |
| 20260510131116 | 49 | 8 | 1.7 | 3.5 | 0.00 | 0.00 | 0.00 | 71 | 1016.5 |
| 20260510130612 | 48 | 4 | 5.2 | 7.0 | 0.00 | 0.00 | 0.00 | 70 | 1016.5 |
| 20260510130110 | 48 | 72 | 5.2 | 8.7 | 0.00 | 0.00 | 0.00 | 69 | 1016.4 |
| 20260510125606 | 48 | 354 | 3.5 | 4.3 | 0.00 | 0.00 | 0.00 | 72 | 1016.4 |
| 20260510125102 | 48 | 9 | 2.6 | 3.5 | 0.00 | 0.00 | 0.00 | 73 | 1016.4 |
| 20260510124558 | 48 | 47 | 6.1 | 7.0 | 0.00 | 0.00 | 0.00 | 73 | 1016.3 |
| 20260510124056 | 48 | 25 | 2.6 | 6.1 | 0.00 | 0.00 | 0.00 | 76 | 1016.4 |
| 20260510123551 | 48 | 28 | 4.3 | 4.3 | 0.00 | 0.00 | 0.00 | 74 | 1016.2 |
| 20260510123047 | 48 | 3 | 7.0 | 9.6 | 0.00 | 0.00 | 0.00 | 76 | 1016.0 |
| 20260510122543 | 48 | 27 | 2.6 | 3.5 | 0.00 | 0.00 | 0.00 | 78 | 1016.0 |
| 20260510122039 | 48 | 35 | 4.3 | 6.1 | 0.00 | 0.00 | 0.00 | 75 | 1015.9 |
| 20260510121537 | 48 | 353 | 3.5 | 3.5 | 0.00 | 0.00 | 0.00 | 78 | 1016.0 |
| 20260510121034 | 48 | 21 | 3.5 | 4.3 | 0.00 | 0.00 | 0.00 | 79 | 1015.6 |
| 20260510120531 | 48 | 30 | 1.7 | 6.1 | 0.00 | 0.00 | 0.00 | 80 | 1015.5 |
| 20260510120027 | 48 | 357 | 2.6 | 6.1 | 0.00 | 0.00 | 0.00 | 79 | 1015.4 |
| 20260510115524 | 48 | 21 | 2.6 | 6.1 | 0.00 | 0.00 | 0.00 | 80 | 1015.5 |
| 20260510115020 | 48 | 353 | 2.6 | 4.3 | 0.00 | 0.00 | 0.00 | 81 | 1015.2 |
| 20260510114516 | 48 | 336 | 3.5 | 3.5 | 0.00 | 0.00 | 0.00 | 81 | 1014.9 |
| 20260510114013 | 48 | 344 | 3.5 | 4.3 | 0.00 | 0.00 | 0.00 | 81 | 1014.8 |
| 20260510113508 | 48 | 31 | 0.9 | 3.5 | 0.00 | 0.00 | 0.00 | 81 | 1014.7 |
| 20260510113006 | 48 | 10 | 0.9 | 4.3 | 0.00 | 0.00 | 0.00 | 84 | 1014.6 |
| 20260510112503 | 48 | 22 | 3.5 | 7.0 | 0.00 | 0.00 | 0.00 | 84 | 1014.6 |
| 20260510111959 | 48 | 23 | 3.5 | 4.3 | 0.00 | 0.00 | 0.00 | 84 | 1014.4 |
| 20260510111455 | 48 | 357 | 4.3 | 7.0 | 0.00 | 0.00 | 0.00 | 85 | 1014.3 |
| 20260510110951 | 48 | 18 | 0.9 | 4.3 | 0.00 | 0.00 | 0.00 | 86 | 1014.6 |
| 20260510110448 | 48 | 28 | 0.9 | 2.6 | 0.00 | 0.00 | 0.00 | 86 | 1014.3 |
| 20260510105944 | 48 | 16 | 1.7 | 2.6 | 0.00 | 0.00 | 0.00 | 86 | 1014.2 |
| 20260510105439 | 48 | 352 | 2.6 | 3.5 | 0.00 | 0.00 | 0.00 | 86 | 1013.9 |
| 20260510104934 | 48 | 355 | 4.3 | 6.1 | 0.00 | 0.00 | 0.00 | 86 | 1013.9 |
| 20260510104431 | 48 | 13 | 2.6 | 2.6 | 0.00 | 0.00 | 0.00 | 87 | 1013.8 |
| 20260510103928 | 48 | 2 | 1.7 | 3.5 | 0.00 | 0.00 | 0.00 | 87 | 1013.7 |
| 20260510103426 | 48 | 25 | 1.7 | 2.6 | 0.00 | 0.00 | 0.00 | 87 | 1013.3 |
| 20260510102920 | 48 | 9 | 1.7 | 2.6 | 0.00 | 0.00 | 0.00 | 87 | 1013.5 |
| 20260510102416 | 48 | 343 | 1.7 | 2.6 | 0.00 | 0.00 | 0.00 | 86 | 1013.3 |
| 20260510101914 | 48 | 16 | 3.5 | 7.0 | 0.00 | 0.00 | 0.00 | 86 | 1013.2 |
| 20260510101412 | 48 | 357 | 1.7 | 2.6 | 0.00 | 0.00 | 0.00 | 87 | 1013.5 |
| 20260510100909 | 49 | 5 | 0.9 | 0.9 | 0.00 | 0.00 | 0.00 | 88 | 1013.3 |
| 20260510100406 | 49 | 23 | 0.9 | 3.5 | 0.00 | 0.00 | 0.00 | 87 | 1013.1 |
| 20260510095902 | 49 | 346 | 4.3 | 3.5 | 0.00 | 0.00 | 0.00 | 87 | 1013.1 |
| 20260510095357 | 49 | 353 | 0.9 | 0.9 | 0.00 | 0.00 | 0.00 | 88 | 1012.9 |
| 20260510094856 | 49 | 352 | 1.7 | 2.6 | 0.00 | 0.00 | 0.00 | 89 | 1012.7 |
| 20260510094352 | 49 | 345 | 0.9 | 0.9 | 0.00 | 0.00 | 0.00 | 89 | 1012.7 |
| 20260510093848 | 49 | 344 | 0.9 | 3.5 | 0.00 | 0.00 | 0.00 | 89 | 1012.7 |
| 20260510093344 | 48 | 7 | 0.9 | 2.6 | 0.00 | 0.00 | 0.00 | 90 | 1012.6 |
| 20260510092840 | 49 | 7 | 0.0 | 0.0 | 0.00 | 0.00 | 0.00 | 89 | 1012.2 |
| 20260510092337 | 49 | 7 | 0.9 | 0.9 | 0.00 | 0.00 | 0.00 | 87 | 1012.3 |
| 20260510091832 | 49 | 7 | 0.0 | 0.9 | 0.00 | 0.00 | 0.00 | 85 | 1012.3 |
| 20260510091330 | 50 | 7 | 0.9 | 0.9 | 0.00 | 0.00 | 0.00 | 85 | 1012.2 |
| 20260510090826 | 50 | 16 | 1.7 | 2.6 | 0.00 | 0.00 | 0.00 | 85 | 1012.1 |
| 20260510090323 | 50 | 8 | 2.6 | 3.5 | 0.00 | 0.00 | 0.00 | 84 | 1012.0 |
| 20260510085819 | 51 | 14 | 3.5 | 4.3 | 0.00 | 0.00 | 0.00 | 84 | 1011.9 |
| 20260510085318 | 51 | 20 | 2.6 | 3.5 | 0.00 | 0.00 | 0.00 | 87 | 1012.1 |
| 20260510084814 | 51 | 354 | 3.5 | 4.3 | 0.00 | 0.00 | 0.00 | 88 | 1011.9 |
| 20260510084312 | 51 | 10 | 2.6 | 6.1 | 0.00 | 0.00 | 0.00 | 89 | 1011.7 |
| 20260510083808 | 52 | 36 | 2.6 | 6.1 | 0.00 | 0.00 | 0.00 | 90 | 1011.7 |
| 20260510083306 | 52 | 351 | 1.7 | 3.5 | 0.00 | 0.00 | 0.00 | 92 | 1012.0 |
| 20260510082801 | 52 | 0 | 1.7 | 2.6 | 0.00 | 0.00 | 0.00 | 93 | 1011.9 |
| 20260510082258 | 52 | 21 | 2.6 | 3.5 | 0.00 | 0.00 | 0.00 | 91 | 1011.8 |
| 20260510081756 | 52 | 13 | 3.5 | 6.1 | 0.00 | 0.00 | 0.00 | 90 | 1011.6 |
| 20260510081253 | 52 | 13 | 5.2 | 9.6 | 0.00 | 0.00 | 0.00 | 88 | 1011.5 |
| 20260510080749 | 53 | 6 | 3.5 | 6.1 | 0.00 | 0.00 | 0.00 | 91 | 1011.5 |
| 20260510080244 | 53 | 21 | 2.6 | 7.0 | 0.00 | 0.00 | 0.00 | 92 | 1011.2 |
| 20260510075741 | 53 | 343 | 3.5 | 4.3 | 0.00 | 0.00 | 0.00 | 93 | 1011.3 |
| 20260510075239 | 53 | 5 | 2.6 | 4.3 | 0.00 | 0.00 | 0.00 | 94 | 1011.2 |
| 20260510074736 | 53 | 10 | 1.7 | 2.6 | 0.00 | 0.00 | 0.00 | 95 | 1011.0 |
| 20260510074232 | 54 | 4 | 5.2 | 6.1 | 0.00 | 0.00 | 0.00 | 96 | 1011.0 |
| 20260510073728 | 53 | 7 | 1.7 | 4.3 | 0.00 | 0.00 | 0.00 | 96 | 1011.0 |
| 20260510073224 | 53 | 6 | 0.9 | 0.9 | 0.00 | 0.00 | 0.00 | 97 | 1011.1 |
| 20260510072720 | 53 | 6 | 0.9 | 0.9 | 0.00 | 0.00 | 0.00 | 97 | 1011.1 |
| 20260510072217 | 53 | 6 | 0.0 | 0.9 | 0.00 | 0.00 | 0.00 | 97 | 1010.9 |
| 20260510071714 | 53 | 6 | 0.0 | 0.9 | 0.00 | 0.00 | 0.00 | 96 | 1010.8 |
| 20260510071210 | 53 | 6 | 0.0 | 0.0 | 0.00 | 0.00 | 0.00 | 96 | 1010.6 |
| 20260510070708 | 53 | 6 | 0.0 | 0.0 | 0.00 | 0.00 | 0.00 | 96 | 1010.6 |
| 20260510070205 | 53 | 6 | 0.9 | 0.9 | 0.00 | 0.00 | 0.00 | 96 | 1010.6 |
| 20260510065700 | 53 | 6 | 0.0 | 0.0 | 0.00 | 0.00 | 0.00 | 95 | 1010.6 |
| 20260510065157 | 53 | 6 | 0.0 | 0.9 | 0.00 | 0.00 | 0.00 | 95 | 1010.6 |
| 20260510064653 | 54 | 6 | 0.9 | 0.9 | 0.00 | 0.00 | 0.00 | 95 | 1010.2 |
| 20260510064150 | 54 | 6 | 0.0 | 0.9 | 0.00 | 0.00 | 0.00 | 95 | 1010.3 |
| 20260510063648 | 54 | 5 | 1.7 | 2.6 | 0.00 | 0.00 | 0.00 | 94 | 1010.1 |
| 20260510063144 | 54 | 8 | 1.7 | 0.9 | 0.00 | 0.00 | 0.00 | 94 | 1010.2 |
| 20260510062640 | 54 | 4 | 0.9 | 2.6 | 0.00 | 0.00 | 0.00 | 95 | 1010.6 |
| 20260510062136 | 54 | 318 | 0.0 | 2.6 | 0.00 | 0.00 | 0.00 | 94 | 1010.6 |
| 20260510061631 | 54 | 24 | 1.7 | 7.0 | 0.00 | 0.00 | 0.00 | 95 | 1010.5 |
| 20260510061129 | 54 | 354 | 1.7 | 2.6 | 0.00 | 0.00 | 0.00 | 95 | 1010.2 |
| 20260510060625 | 54 | 331 | 5.2 | 10.4 | 0.00 | 0.00 | 0.00 | 95 | 1010.6 |
| 20260510060122 | 54 | 1 | 3.5 | 3.5 | 0.00 | 0.00 | 0.00 | 95 | 1010.0 |
| 20260510055618 | 54 | 236 | 3.5 | 3.5 | 0.00 | 0.00 | 0.00 | 95 | 1009.7 |
| 20260510055116 | 54 | 244 | 0.9 | 0.9 | 0.00 | 0.00 | 0.00 | 95 | 1009.7 |
| 20260510054612 | 54 | 205 | 2.6 | 2.6 | 0.00 | 0.00 | 0.00 | 95 | 1009.7 |
| 20260510054107 | 54 | 224 | 4.3 | 6.1 | 0.00 | 0.00 | 0.00 | 95 | 1009.6 |
| 20260510053606 | 54 | 233 | 4.3 | 6.1 | 0.00 | 0.00 | 0.00 | 95 | 1009.7 |
| 20260510053104 | 54 | 227 | 2.6 | 3.5 | 0.00 | 0.00 | 0.00 | 96 | 1009.6 |
| 20260510052559 | 54 | 223 | 1.7 | 3.5 | 0.00 | 0.00 | 0.00 | 96 | 1009.5 |
| 20260510052056 | 54 | 232 | 0.9 | 2.6 | 0.00 | 0.00 | 0.00 | 96 | 1009.3 |
| 20260510051551 | 53 | 202 | 2.6 | 2.6 | 0.00 | 0.00 | 0.00 | 95 | 1009.4 |
| 20260510051049 | 54 | 203 | 0.9 | 0.9 | 0.00 | 0.00 | 0.00 | 95 | 1009.5 |
| 20260510050546 | 54 | 202 | 1.7 | 2.6 | 0.00 | 0.00 | 0.00 | 95 | 1009.3 |
| 20260510050043 | 54 | 210 | 0.9 | 2.6 | 0.00 | 0.00 | 0.00 | 95 | 1009.4 |
| 20260510045540 | 54 | 156 | 1.7 | 2.6 | 0.00 | 0.00 | 0.00 | 95 | 1009.4 |
| 20260510045036 | 54 | 132 | 1.7 | 3.5 | 0.00 | 0.00 | 0.00 | 96 | 1009.3 |
| 20260510044533 | 54 | 184 | 0.9 | 3.5 | 0.00 | 0.00 | 0.00 | 96 | 1009.4 |
| 20260510044031 | 54 | 192 | 0.9 | 3.5 | 0.00 | 0.00 | 0.00 | 96 | 1009.4 |
| 20260510043526 | 54 | 206 | 1.7 | 0.9 | 0.00 | 0.00 | 0.00 | 96 | 1009.5 |
| 20260510043021 | 54 | 184 | 1.7 | 0.9 | 0.00 | 0.00 | 0.00 | 95 | 1009.4 |
| 20260510042515 | 54 | 125 | 0.9 | 0.9 | 0.00 | 0.00 | 0.00 | 95 | 1009.7 |
| 20260510042010 | 55 | 120 | 0.9 | 2.6 | 0.00 | 0.00 | 0.00 | 95 | 1009.6 |
| 20260510041509 | 55 | 119 | 2.6 | 2.6 | 0.00 | 0.00 | 0.00 | 95 | 1009.6 |
| 20260510041006 | 55 | 135 | 2.6 | 2.6 | 0.00 | 0.00 | 0.00 | 95 | 1009.8 |
| 20260510040502 | 55 | 77 | 1.7 | 2.6 | 0.00 | 0.00 | 0.00 | 95 | 1010.1 |
| 20260510035957 | 55 | 8 | 0.9 | 0.9 | 0.00 | 1.03 | 1.03 | 95 | 1009.6 |
| 20260510035455 | 55 | 5 | 0.9 | 2.6 | 0.00 | 1.03 | 1.03 | 95 | 1009.7 |
| 20260510034954 | 55 | 68 | 2.6 | 2.6 | 0.07 | 1.03 | 1.03 | 95 | 1009.9 |
| 20260510034453 | 55 | 355 | 4.3 | 4.3 | 0.07 | 1.03 | 1.03 | 94 | 1009.8 |
| 20260510033949 | 55 | 261 | 0.0 | 3.5 | 0.00 | 1.02 | 1.02 | 94 | 1009.4 |
| 20260510033445 | 55 | 186 | 2.6 | 3.5 | 0.00 | 1.02 | 1.02 | 93 | 1009.3 |
| 20260510032942 | 55 | 188 | 0.0 | 2.6 | 0.00 | 1.02 | 1.02 | 94 | 1009.5 |
| 20260510032439 | 55 | 191 | 1.7 | 3.5 | 0.00 | 1.02 | 1.02 | 94 | 1009.7 |
| 20260510031939 | 55 | 220 | 1.7 | 3.5 | 0.00 | 1.02 | 1.02 | 94 | 1009.8 |
| 20260510031435 | 55 | 171 | 1.7 | 2.6 | 0.00 | 1.02 | 1.02 | 94 | 1009.5 |
| 20260510030931 | 55 | 226 | 0.9 | 0.9 | 0.00 | 1.02 | 1.02 | 94 | 1009.6 |
| 20260510030426 | 55 | 227 | 0.0 | 0.9 | 0.00 | 1.02 | 1.02 | 94 | 1009.5 |
| 20260510025924 | 55 | 256 | 1.7 | 2.6 | 0.17 | 1.02 | 1.02 | 94 | 1009.5 |
| 20260510025421 | 55 | 20 | 3.5 | 6.1 | 0.17 | 1.02 | 1.02 | 95 | 1009.5 |
| 20260510024919 | 54 | 7 | 0.0 | 2.6 | 0.00 | 0.99 | 0.99 | 95 | 1009.9 |
| 20260510024415 | 54 | 247 | 0.0 | 0.9 | 0.00 | 0.99 | 0.99 | 95 | 1009.2 |
| 20260510023911 | 54 | 245 | 0.0 | 0.0 | 0.00 | 0.99 | 0.99 | 95 | 1008.8 |
| 20260510023407 | 54 | 245 | 0.0 | 2.6 | 0.00 | 0.99 | 0.99 | 95 | 1008.9 |
| 20260510022905 | 54 | 202 | 0.9 | 0.9 | 0.00 | 0.99 | 0.99 | 95 | 1008.9 |
| 20260510022404 | 54 | 158 | 0.9 | 4.3 | 0.19 | 0.99 | 0.99 | 95 | 1008.8 |
| 20260510021903 | 54 | 153 | 2.6 | 2.6 | 0.19 | 0.99 | 0.99 | 95 | 1008.7 |
| 20260510021401 | 54 | 238 | 0.9 | 2.6 | 0.05 | 0.97 | 0.97 | 95 | 1009.0 |
| 20260510020857 | 54 | 217 | 0.9 | 0.9 | 0.00 | 0.96 | 0.96 | 95 | 1008.7 |
| 20260510020352 | 54 | 227 | 0.0 | 0.9 | 0.00 | 0.96 | 0.96 | 94 | 1008.8 |
| 20260510015848 | 54 | 227 | 0.9 | 0.9 | 0.00 | 0.96 | 0.96 | 94 | 1008.6 |
| 20260510015344 | 54 | 227 | 0.0 | 0.0 | 0.00 | 0.96 | 0.96 | 94 | 1008.6 |
| 20260510014839 | 54 | 227 | 0.0 | 0.9 | 0.00 | 0.96 | 0.96 | 93 | 1008.6 |
| 20260510014337 | 54 | 231 | 0.9 | 0.9 | 0.00 | 0.96 | 0.96 | 93 | 1008.5 |
| 20260510013833 | 55 | 125 | 0.9 | 2.6 | 0.00 | 0.96 | 0.96 | 93 | 1008.4 |
| 20260510013329 | 55 | 237 | 0.0 | 0.9 | 0.00 | 0.96 | 0.96 | 93 | 1008.6 |
| 20260510012824 | 55 | 231 | 0.0 | 2.6 | 0.00 | 0.96 | 0.96 | 93 | 1008.6 |
| 20260510012323 | 55 | 228 | 1.7 | 3.5 | 0.00 | 0.96 | 0.96 | 93 | 1008.6 |
| 20260510011819 | 55 | 134 | 1.7 | 3.5 | 0.00 | 0.96 | 0.96 | 93 | 1008.2 |
| 20260510011314 | 54 | 246 | 0.9 | 2.6 | 0.00 | 0.96 | 0.96 | 93 | 1008.3 |
| 20260510010811 | 54 | 200 | 0.9 | 4.3 | 0.00 | 0.96 | 0.96 | 93 | 1008.2 |
| 20260510010308 | 54 | 286 | 0.0 | 0.9 | 0.00 | 0.96 | 0.96 | 93 | 1008.2 |
| 20260510005805 | 55 | 218 | 0.0 | 0.9 | 0.00 | 0.96 | 0.96 | 92 | 1008.3 |
| 20260510005301 | 55 | 215 | 0.9 | 2.6 | 0.00 | 0.96 | 0.96 | 92 | 1008.2 |
| 20260510004759 | 55 | 265 | 0.9 | 3.5 | 0.00 | 0.96 | 0.96 | 92 | 1008.1 |
| 20260510004256 | 55 | 222 | 1.7 | 3.5 | 0.00 | 0.96 | 0.96 | 91 | 1008.3 |
| 20260510003754 | 55 | 263 | 3.5 | 6.1 | 0.07 | 0.96 | 0.96 | 91 | 1008.3 |
| 20260510003250 | 55 | 187 | 1.7 | 6.1 | 0.07 | 0.96 | 0.96 | 91 | 1008.1 |
| 20260510002749 | 55 | 222 | 2.6 | 2.6 | 0.12 | 0.95 | 0.95 | 92 | 1007.9 |
| 20260510002247 | 55 | 308 | 0.0 | 3.5 | 0.17 | 0.95 | 0.95 | 92 | 1008.5 |
| 20260510001743 | 55 | 269 | 2.6 | 3.5 | 0.17 | 0.93 | 0.93 | 92 | 1008.6 |
| 20260510001242 | 55 | 288 | 2.6 | 4.3 | 0.24 | 0.92 | 0.92 | 93 | 1008.5 |
| 20260510000737 | 55 | 303 | 3.5 | 6.1 | 0.31 | 0.90 | 0.90 | 92 | 1008.6 |
| 20260510000235 | 55 | 265 | 0.9 | 8.7 | 0.78 | 0.88 | 0.88 | 92 | 1008.7 |
| 20260509235731 | 55 | 275 | 1.7 | 16.5 | 1.02 | 0.84 | 0.84 | 91 | 1008.7 |
| 20260509235228 | 55 | 322 | 12.2 | 20.0 | 0.90 | 0.74 | 0.74 | 88 | 1007.9 |
| 20260509234724 | 57 | 2 | 7.8 | 16.5 | 0.61 | 0.66 | 0.66 | 85 | 1007.4 |
| 20260509234221 | 60 | 290 | 3.5 | 18.2 | 0.12 | 0.58 | 0.58 | 77 | 1007.8 |
| 20260509233719 | 66 | 358 | 7.0 | 9.6 | 0.00 | 0.56 | 0.56 | 57 | 1007.5 |
| 20260509233216 | 67 | 266 | 1.7 | 6.1 | 0.00 | 0.56 | 0.56 | 54 | 1006.4 |
| 20260509232713 | 67 | 255 | 5.2 | 7.0 | 0.00 | 0.56 | 0.56 | 52 | 1006.2 |
| 20260509232210 | 67 | 252 | 3.5 | 6.1 | 0.00 | 0.56 | 0.56 | 52 | 1006.0 |
| 20260509231706 | 67 | 221 | 6.1 | 13.9 | 0.00 | 0.56 | 0.56 | 51 | 1005.8 |
| 20260509231204 | 67 | 214 | 8.7 | 10.4 | 0.00 | 0.56 | 0.56 | 50 | 1005.8 |
| 20260509230701 | 67 | 164 | 5.2 | 9.6 | 0.00 | 0.56 | 0.56 | 50 | 1005.9 |
| 20260509230157 | 67 | 226 | 3.5 | 8.7 | 0.00 | 0.56 | 0.56 | 50 | 1006.0 |
| 20260509225653 | 67 | 222 | 3.5 | 7.0 | 0.00 | 0.56 | 0.56 | 51 | 1005.9 |
| 20260509225149 | 68 | 227 | 13.9 | 16.5 | 0.00 | 0.56 | 0.56 | 50 | 1005.8 |
| 20260509224644 | 68 | 156 | 2.6 | 3.5 | 0.00 | 0.56 | 0.56 | 52 | 1005.4 |
| 20260509224142 | 68 | 191 | 7.0 | 18.2 | 0.00 | 0.56 | 0.56 | 50 | 1005.6 |
| 20260509223638 | 68 | 217 | 2.6 | 7.0 | 0.00 | 0.56 | 0.56 | 49 | 1005.7 |
| 20260509223136 | 68 | 227 | 6.1 | 9.6 | 0.00 | 0.56 | 0.56 | 49 | 1006.0 |
| 20260509222633 | 69 | 186 | 10.4 | 13.0 | 0.00 | 0.56 | 0.56 | 47 | 1005.6 |
| 20260509222128 | 69 | 203 | 4.3 | 8.7 | 0.00 | 0.56 | 0.56 | 47 | 1005.8 |
| 20260509221624 | 69 | 231 | 7.8 | 13.9 | 0.00 | 0.56 | 0.56 | 46 | 1005.8 |
| 20260509221120 | 69 | 257 | 5.2 | 10.4 | 0.00 | 0.56 | 0.56 | 49 | 1005.7 |
| 20260509220616 | 69 | 201 | 4.3 | 13.9 | 0.00 | 0.56 | 0.56 | 48 | 1005.7 |
| 20260509220113 | 69 | 268 | 10.4 | 18.2 | 0.00 | 0.56 | 0.56 | 48 | 1006.0 |
| 20260509215608 | 69 | 217 | 2.6 | 8.7 | 0.00 | 0.56 | 0.56 | 50 | 1005.6 |
| 20260509215106 | 69 | 201 | 7.8 | 8.7 | 0.00 | 0.56 | 0.56 | 49 | 1005.7 |
| 20260509214602 | 69 | 207 | 6.1 | 13.9 | 0.00 | 0.56 | 0.56 | 48 | 1005.6 |
| 20260509214059 | 69 | 217 | 7.0 | 10.4 | 0.00 | 0.56 | 0.56 | 48 | 1005.7 |
| 20260509213555 | 69 | 159 | 7.8 | 13.9 | 0.00 | 0.56 | 0.56 | 47 | 1005.8 |
| 20260509213052 | 69 | 263 | 6.1 | 16.5 | 0.00 | 0.56 | 0.56 | 48 | 1005.9 |
| 20260509212549 | 69 | 249 | 7.0 | 12.2 | 0.00 | 0.56 | 0.56 | 46 | 1005.8 |
| 20260509212046 | 68 | 208 | 3.5 | 10.4 | 0.00 | 0.56 | 0.56 | 50 | 1006.1 |
| 20260509211542 | 69 | 275 | 8.7 | 13.9 | 0.00 | 0.56 | 0.56 | 48 | 1006.1 |
| 20260509211039 | 69 | 201 | 5.2 | 10.4 | 0.00 | 0.56 | 0.56 | 49 | 1006.2 |
| 20260509210536 | 69 | 128 | 3.5 | 12.2 | 0.00 | 0.56 | 0.56 | 49 | 1006.0 |
| 20260509210032 | 69 | 158 | 7.0 | 13.0 | 0.00 | 0.56 | 0.56 | 48 | 1006.2 |
| 20260509205526 | 70 | 206 | 9.6 | 12.2 | 0.00 | 0.56 | 0.56 | 46 | 1006.5 |
| 20260509205022 | 69 | 135 | 3.5 | 8.7 | 0.00 | 0.56 | 0.56 | 46 | 1006.3 |
| 20260509204518 | 68 | 199 | 5.2 | 10.4 | 0.00 | 0.56 | 0.56 | 52 | 1006.3 |
| 20260509204015 | 68 | 203 | 7.0 | 12.2 | 0.00 | 0.56 | 0.56 | 50 | 1006.4 |
| 20260509203510 | 67 | 241 | 8.7 | 18.2 | 0.00 | 0.56 | 0.56 | 51 | 1006.4 |
| 20260509203009 | 69 | 175 | 6.1 | 8.7 | 0.00 | 0.56 | 0.56 | 50 | 1006.5 |
| 20260509202503 | 69 | 266 | 7.0 | 13.9 | 0.00 | 0.56 | 0.56 | 50 | 1006.4 |
| 20260509201959 | 70 | 202 | 7.8 | 16.5 | 0.00 | 0.56 | 0.56 | 50 | 1006.6 |
| 20260509201454 | 68 | 187 | 3.5 | 8.7 | 0.00 | 0.56 | 0.56 | 54 | 1006.6 |
| 20260509200951 | 69 | 234 | 7.8 | 10.4 | 0.00 | 0.56 | 0.56 | 50 | 1006.7 |
| 20260509200446 | 68 | 250 | 5.2 | 8.7 | 0.00 | 0.56 | 0.56 | 52 | 1006.7 |
| 20260509195943 | 68 | 102 | 6.1 | 8.7 | 0.00 | 0.56 | 0.56 | 53 | 1006.8 |
| 20260509195433 | 68 | 201 | 4.3 | 4.3 | 0.00 | 0.56 | 0.56 | 51 | 1006.9 |
| 20260509194932 | 68 | 181 | 4.3 | 10.4 | 0.00 | 0.56 | 0.56 | 53 | 1007.1 |
| 20260509194428 | 67 | 215 | 4.3 | 13.9 | 0.00 | 0.56 | 0.56 | 53 | 1007.2 |
| 20260509193926 | 67 | 227 | 6.1 | 13.0 | 0.00 | 0.56 | 0.56 | 53 | 1007.1 |
| 20260509193425 | 67 | 213 | 3.5 | 13.9 | 0.00 | 0.56 | 0.56 | 53 | 1007.4 |
| 20260509192921 | 67 | 219 | 13.9 | 16.5 | 0.00 | 0.56 | 0.56 | 52 | 1007.7 |
| 20260509192418 | 67 | 242 | 10.4 | 13.0 | 0.00 | 0.56 | 0.56 | 51 | 1007.7 |
| 20260509191913 | 68 | 235 | 7.0 | 15.6 | 0.00 | 0.56 | 0.56 | 50 | 1007.5 |
| 20260509191409 | 67 | 256 | 4.3 | 7.0 | 0.00 | 0.56 | 0.56 | 54 | 1007.6 |
| 20260509190905 | 66 | 228 | 6.1 | 13.9 | 0.00 | 0.56 | 0.56 | 56 | 1007.6 |
| 20260509190402 | 67 | 178 | 7.8 | 10.4 | 0.00 | 0.56 | 0.56 | 51 | 1007.5 |
| 20260509185900 | 68 | 250 | 6.1 | 13.0 | 0.00 | 0.56 | 0.56 | 54 | 1007.7 |
| 20260509185356 | 67 | 265 | 7.0 | 10.4 | 0.00 | 0.56 | 0.56 | 53 | 1007.8 |
| 20260509184853 | 66 | 240 | 3.5 | 7.0 | 0.00 | 0.56 | 0.56 | 54 | 1007.8 |
| 20260509184350 | 66 | 233 | 9.6 | 15.6 | 0.00 | 0.56 | 0.56 | 53 | 1007.8 |
| 20260509183847 | 67 | 229 | 7.0 | 8.7 | 0.00 | 0.56 | 0.56 | 53 | 1007.7 |
| 20260509183342 | 65 | 226 | 12.2 | 13.0 | 0.00 | 0.56 | 0.56 | 56 | 1007.8 |
| 20260509182838 | 65 | 233 | 4.3 | 13.9 | 0.00 | 0.56 | 0.56 | 55 | 1008.0 |
| 20260509182335 | 66 | 210 | 6.1 | 13.0 | 0.00 | 0.56 | 0.56 | 55 | 1008.0 |
| 20260509181833 | 65 | 188 | 6.1 | 13.9 | 0.00 | 0.56 | 0.56 | 58 | 1008.0 |
| 20260509181330 | 64 | 276 | 3.5 | 9.6 | 0.00 | 0.56 | 0.56 | 61 | 1007.9 |
| 20260509180827 | 64 | 234 | 7.8 | 13.0 | 0.00 | 0.56 | 0.56 | 58 | 1008.2 |
| 20260509180323 | 64 | 242 | 6.1 | 13.0 | 0.00 | 0.56 | 0.56 | 58 | 1008.1 |
| 20260509175820 | 64 | 232 | 4.3 | 12.2 | 0.00 | 0.56 | 0.56 | 59 | 1008.0 |
| 20260509175316 | 65 | 124 | 5.2 | 9.6 | 0.00 | 0.56 | 0.56 | 59 | 1008.0 |
| 20260509174812 | 65 | 243 | 4.3 | 8.7 | 0.00 | 0.56 | 0.56 | 61 | 1008.1 |
| 20260509174308 | 64 | 211 | 2.6 | 6.1 | 0.00 | 0.56 | 0.56 | 63 | 1008.1 |
| 20260509173804 | 63 | 273 | 7.8 | 12.2 | 0.00 | 0.56 | 0.56 | 60 | 1007.8 |
| 20260509173300 | 63 | 239 | 5.2 | 9.6 | 0.00 | 0.56 | 0.56 | 62 | 1007.8 |
| 20260509172756 | 64 | 200 | 7.8 | 9.6 | 0.00 | 0.56 | 0.56 | 61 | 1007.8 |
| 20260509172253 | 64 | 185 | 3.5 | 7.0 | 0.00 | 0.56 | 0.56 | 63 | 1007.9 |
| 20260509171748 | 64 | 228 | 3.5 | 9.6 | 0.00 | 0.56 | 0.56 | 62 | 1007.9 |
| 20260509171245 | 64 | 214 | 2.6 | 4.3 | 0.00 | 0.56 | 0.56 | 65 | 1008.3 |